Weather History for KMSN - August, 2014

Change the Weather History Date:

Sunday, August 24, 2014

  Actual Average Record
Temperature  
Mean Temperature 79 °F 68 °F  
Max Temperature 87 °F 79 °F 98 °F (1948)
Min Temperature 71 °F 58 °F 41 °F (1977)
Degree Days  
Heating Degree Days 0 1  
Month to date heating degree days 4 21  
Since 1 June heating degree days 26 91  
Since 1 July heating degree days 17 31  
Cooling Degree Days 14 4  
Month to date cooling degree days 156 131  
Year to date cooling degree days 532 487  
Since 1 June cooling degree days 481 457  
Growing Degree Days 29 (Base 50)    
Moisture  
Dew Point 71 °F    
Average Humidity 80    
Maximum Humidity 90    
Minimum Humidity 70    
Precipitation  
Precipitation 0.00 in 0.12 in 2.25 in (2006)
Month to date precipitation 3.91 3.35  
Year to date precipitation 26.29 23.90  
Snow  
Snow 0.00 in 0.00 in 0.00 in ()
Month to date snowfall 0.0 0.0  
Since 1 June snowfall 0.0 0.0  
Since 1 July snowfall 0.0 0.0  
Snow Depth 0.00 in    
Sea Level Pressure  
Sea Level Pressure 29.97 in    
Wind  
Wind Speed 9 mph (SE)    
Max Wind Speed 16 mph    
Max Gust Speed 18 mph    
Visibility 10 miles    
Events      
T = Trace of Precipitation, MM = Missing Value Source: NWS Daily Summary

Daily Weather History Graph

Daily Weather History Graph

Search for Another Location

Airport or City:

Trip Planner

Search our weather history database for the weather conditions in past years. The results will help you decide how hot, cold, wet, or windy it might be!

Date:

Astronomy

Aug. 24, 2014 Rise Set
Actual Time 6:12 AM CDT 7:45 PM CDT
Civil Twilight 5:42 AM CDT 8:15 PM CDT
Nautical Twilight 5:06 AM CDT 8:51 PM CDT
Astronomical Twilight 4:28 AM CDT 9:30 PM CDT
Moon 5:23 AM CDT 7:03 PM CDT
Length of Visible Light 14h 32m
Length of Day
13h 32m
Waning Crescent, 1% of the Moon is Illuminated
Aug 24
Waning Crescent
Aug 25
New
Sep 2
First Quarter
Sep 8
Full
Sep 15
Last Quarter

Hourly Weather History & Observations

Time (CDT) Temp. Heat Index Dew Point Humidity Pressure Visibility Wind Dir Wind Speed Gust Speed Precip Events Conditions
12:29 AM 73.0 °F - 69.1 °F 87% 30.00 in 9.0 mi ESE 9.2 mph - N/A   Mostly Cloudy
12:53 AM 73.0 °F - 68.0 °F 84% 29.99 in 10.0 mi ESE 6.9 mph - N/A   Overcast
1:38 AM 72.0 °F - 68.0 °F 87% 29.99 in 10.0 mi ESE 9.2 mph - N/A   Overcast
1:53 AM 72.0 °F - 68.0 °F 87% 29.97 in 10.0 mi ESE 9.2 mph - N/A   Overcast
2:53 AM 72.0 °F - 68.0 °F 87% 29.98 in 10.0 mi SSE 6.9 mph - N/A   Overcast
3:53 AM 72.0 °F - 68.0 °F 87% 29.96 in 9.0 mi SSE 6.9 mph - N/A   Overcast
4:53 AM 71.1 °F - 68.0 °F 90% 29.96 in 9.0 mi SE 5.8 mph - N/A   Overcast
5:53 AM 71.1 °F - 68.0 °F 90% 29.97 in 8.0 mi ESE 6.9 mph - N/A   Overcast
6:53 AM 71.1 °F - 68.0 °F 90% 29.99 in 6.0 mi SE 5.8 mph - N/A   Overcast
7:53 AM 72.0 °F - 68.0 °F 87% 29.99 in 6.0 mi SE 5.8 mph - N/A   Overcast
8:39 AM 73.0 °F - 69.1 °F 87% 30.00 in 8.0 mi SSE 6.9 mph - N/A   Overcast
8:53 AM 73.9 °F - 69.1 °F 85% 29.99 in 10.0 mi SE 5.8 mph - N/A   Overcast
9:53 AM 77.0 °F - 70.0 °F 79% 29.99 in 10.0 mi SE 8.1 mph - N/A   Overcast
10:00 AM 77.0 °F - 70.0 °F 79% 30.00 in 10.0 mi SE 11.5 mph - N/A   Overcast
10:25 AM 78.1 °F - 70.0 °F 76% 29.99 in 10.0 mi SE 15.0 mph - N/A   Mostly Cloudy
10:53 AM 80.1 °F 83.6 °F 71.1 °F 74% 29.98 in 10.0 mi SE 10.4 mph - N/A   Mostly Cloudy
11:53 AM 81.0 °F 85.2 °F 72.0 °F 74% 29.98 in 10.0 mi SE 11.5 mph - N/A   Overcast
12:53 PM 82.9 °F 88.8 °F 73.0 °F 72% 29.96 in 10.0 mi SSE 11.5 mph - N/A   Mostly Cloudy
1:53 PM 84.0 °F 90.2 °F 73.0 °F 69% 29.96 in 10.0 mi SSE 9.2 mph - N/A   Overcast
2:53 PM 84.9 °F 92.1 °F 73.9 °F 69% 29.95 in 10.0 mi SE 9.2 mph - N/A   Mostly Cloudy
3:53 PM 84.9 °F 92.1 °F 73.9 °F 69% 29.94 in 10.0 mi SE 12.7 mph - N/A   Mostly Cloudy
4:03 PM 86.0 °F 93.8 °F 73.9 °F 67% 29.96 in 10.0 mi SE 10.4 mph - N/A   Mostly Cloudy
4:38 PM 86.0 °F 95.1 °F 75.0 °F 70% 29.95 in 10.0 mi ESE 11.5 mph - N/A   Mostly Cloudy
4:53 PM 86.0 °F 95.1 °F 75.0 °F 70% 29.93 in 10.0 mi ESE 12.7 mph - N/A   Mostly Cloudy
5:17 PM 84.9 °F 92.1 °F 73.9 °F 69% 29.95 in 10.0 mi SSE 11.5 mph - N/A   Mostly Cloudy
5:43 PM 84.2 °F 92.3 °F 75.2 °F 74% 29.94 in 10.0 mi SE 11.5 mph - N/A   Scattered Clouds
5:53 PM 84.0 °F 91.9 °F 75.0 °F 74% 29.93 in 10.0 mi SE 10.4 mph - N/A   Mostly Cloudy
6:53 PM 84.0 °F 91.9 °F 75.0 °F 74% 29.93 in 10.0 mi SE 9.2 mph - N/A   Scattered Clouds
7:53 PM 82.0 °F 88.6 °F 75.0 °F 79% 29.93 in 10.0 mi SE 8.1 mph - N/A   Scattered Clouds
8:03 PM 81.0 °F 86.2 °F 73.9 °F 79% 29.94 in 10.0 mi SE 8.1 mph - N/A   Mostly Cloudy
8:53 PM 78.8 °F - 73.4 °F 83% 29.96 in 10.0 mi SE 11.5 mph - N/A   Mostly Cloudy
9:09 PM 79.0 °F - 73.0 °F 82% 29.97 in 10.0 mi SE 12.7 mph - N/A   Mostly Cloudy
9:35 PM 78.1 °F - 73.0 °F 84% 29.97 in 10.0 mi SE 9.2 mph - N/A   Mostly Cloudy
9:48 PM 77.0 °F - 71.6 °F 83% 29.97 in 10.0 mi SE 9.2 mph - N/A   Scattered Clouds
9:53 PM 77.0 °F - 72.0 °F 84% 29.96 in 9.0 mi ESE 9.2 mph - N/A   Scattered Clouds
10:53 PM 75.9 °F - 72.0 °F 87% 29.96 in 9.0 mi SSE 8.1 mph - N/A   Scattered Clouds
11:26 PM 77.0 °F - 72.0 °F 84% 29.97 in 9.0 mi SSE 12.7 mph - N/A   Overcast